Time,TemperatureF,DewpointF,PressureIn,WindDirection,WindDirectionDegrees,WindSpeedMPH,WindSpeedGustMPH,Humidity,HourlyPrecipIn,Conditions,Clouds,dailyrainin,SolarRadiationWatts/m^2,SoftwareType,DateUTC
2013-06-03 00:02:00,46.9,37.6,29.98,South,172,0.0,0.0,70,0.00,,---,0.00,0.00,VWS V14.01,2013-06-03 07:02:00,
2013-06-03 00:07:00,46.8,37.5,29.98,South,169,0.0,0.0,70,0.00,,---,0.00,0.00,VWS V14.01,2013-06-03 07:07:00,
2013-06-03 00:12:00,46.7,37.5,29.98,South,170,1.0,3.0,70,0.00,,---,0.00,0.00,VWS V14.01,2013-06-03 07:12:00,
2013-06-03 00:17:00,46.7,37.8,29.98,South,171,1.0,3.0,71,0.00,,---,0.00,0.00,VWS V14.01,2013-06-03 07:17:00,
2013-06-03 00:22:00,46.7,37.8,29.98,South,169,0.0,3.0,71,0.00,,---,0.00,0.00,VWS V14.01,2013-06-03 07:22:00,
2013-06-03 00:27:00,46.6,38.1,29.98,South,171,1.0,3.0,72,0.00,,---,0.00,0.00,VWS V14.01,2013-06-03 07:27:00,
2013-06-03 00:32:00,46.6,38.1,29.98,South,171,0.0,0.0,72,0.00,,---,0.00,0.00,VWS V14.01,2013-06-03 07:32:00,
2013-06-03 00:37:00,46.3,37.8,29.98,South,171,0.0,0.0,72,0.00,,---,0.00,0.00,VWS V14.01,2013-06-03 07:37:00,
2013-06-03 00:42:00,46.2,38.0,29.98,South,172,0.0,1.0,73,0.00,,---,0.00,0.00,VWS V14.01,2013-06-03 07:42:00,
2013-06-03 00:47:00,46.1,37.9,29.98,South,171,0.0,1.0,73,0.00,,---,0.00,0.00,VWS V14.01,2013-06-03 07:47:00,
2013-06-03 00:52:00,46.0,37.8,29.98,South,171,0.0,1.0,73,0.00,,---,0.00,0.00,VWS V14.01,2013-06-03 07:52:00,
2013-06-03 00:57:00,45.8,38.0,29.98,South,171,0.0,1.0,74,0.00,,---,0.00,0.00,VWS V14.01,2013-06-03 07:57:00,
2013-06-03 01:02:00,45.6,38.2,29.99,South,171,0.0,0.0,75,0.00,,---,0.00,0.00,VWS V14.01,2013-06-03 08:02:00,
2013-06-03 01:07:00,45.5,38.4,29.99,West,259,1.0,2.0,76,0.00,,---,0.00,0.00,VWS V14.01,2013-06-03 08:07:00,
2013-06-03 01:12:00,45.6,38.5,29.99,West,259,1.0,2.0,76,0.00,,---,0.00,0.00,VWS V14.01,2013-06-03 08:12:00,
2013-06-03 01:17:00,45.5,38.4,29.98,South,173,0.0,2.0,76,0.00,,---,0.00,0.00,VWS V14.01,2013-06-03 08:17:00,
2013-06-03 01:22:00,45.4,38.3,29.98,South,174,0.0,2.0,76,0.00,,---,0.00,0.00,VWS V14.01,2013-06-03 08:22:00,
2013-06-03 01:27:00,45.3,38.2,29.98,South,171,0.0,2.0,76,0.00,,---,0.00,0.00,VWS V14.01,2013-06-03 08:27:00,
2013-06-03 01:32:00,45.1,38.0,29.98,South,174,0.0,0.0,76,0.00,,---,0.00,0.00,VWS V14.01,2013-06-03 08:32:00,
2013-06-03 01:37:00,45.0,37.9,29.98,South,174,2.0,2.0,76,0.00,,---,0.00,0.00,VWS V14.01,2013-06-03 08:37:00,
2013-06-03 01:42:00,44.8,38.0,29.99,South,173,1.0,2.0,77,0.00,,---,0.00,0.00,VWS V14.01,2013-06-03 08:42:00,
2013-06-03 01:47:00,44.7,38.3,29.99,South,173,0.0,2.0,78,0.00,,---,0.00,0.00,VWS V14.01,2013-06-03 08:47:00,
2013-06-03 01:52:00,44.6,38.2,29.99,South,171,0.0,2.0,78,0.00,,---,0.00,0.00,VWS V14.01,2013-06-03 08:52:00,
2013-06-03 01:57:00,44.5,38.1,29.99,South,171,1.0,2.0,78,0.00,,---,0.00,0.00,VWS V14.01,2013-06-03 08:57:00,
2013-06-03 02:02:00,44.5,38.1,29.99,South,172,0.0,0.0,78,0.00,,---,0.00,0.00,VWS V14.01,2013-06-03 09:02:00,
2013-06-03 02:07:00,44.5,38.1,29.99,South,170,0.0,2.0,78,0.00,,---,0.00,0.00,VWS V14.01,2013-06-03 09:07:00,
2013-06-03 02:12:00,44.4,38.0,29.98,South,170,0.0,2.0,78,0.00,,---,0.00,0.00,VWS V14.01,2013-06-03 09:12:00,
2013-06-03 02:17:00,44.3,37.9,29.99,South,171,0.0,2.0,78,0.00,,---,0.00,0.00,VWS V14.01,2013-06-03 09:17:00,
2013-06-03 02:22:00,44.3,38.2,29.99,South,171,0.0,2.0,79,0.00,,---,0.00,0.00,VWS V14.01,2013-06-03 09:22:00,
2013-06-03 02:27:00,44.3,38.2,29.99,SW,235,1.0,2.0,79,0.00,,---,0.00,0.00,VWS V14.01,2013-06-03 09:27:00,
2013-06-03 02:32:00,44.4,38.0,29.99,SW,221,4.0,4.0,78,0.00,,---,0.00,0.00,VWS V14.01,2013-06-03 09:32:00,
2013-06-03 02:37:00,44.8,38.0,29.99,SSW,198,3.0,6.0,77,0.00,,---,0.00,0.00,VWS V14.01,2013-06-03 09:37:00,
2013-06-03 02:42:00,45.0,37.9,29.99,SW,219,0.0,6.0,76,0.00,,---,0.00,0.00,VWS V14.01,2013-06-03 09:42:00,
2013-06-03 02:47:00,45.0,37.6,29.99,SSW,210,1.0,6.0,75,0.00,,---,0.00,0.00,VWS V14.01,2013-06-03 09:47:00,
2013-06-03 02:52:00,44.9,37.5,29.99,SW,214,1.0,6.0,75,0.00,,---,0.00,0.00,VWS V14.01,2013-06-03 09:52:00,
2013-06-03 02:57:00,44.7,37.6,29.99,SW,231,2.0,6.0,76,0.00,,---,0.00,0.00,VWS V14.01,2013-06-03 09:57:00,
2013-06-03 03:02:00,44.5,37.4,29.99,SSW,200,1.0,3.0,76,0.00,,---,0.00,0.00,VWS V14.01,2013-06-03 10:02:00,
2013-06-03 03:07:00,44.5,37.8,29.99,SW,229,1.0,3.0,77,0.00,,---,0.00,0.00,VWS V14.01,2013-06-03 10:07:00,
2013-06-03 03:12:00,44.7,37.6,29.99,SW,215,1.0,3.0,76,0.00,,---,0.00,0.00,VWS V14.01,2013-06-03 10:12:00,
2013-06-03 03:17:00,44.9,37.8,29.99,SW,226,2.0,3.0,76,0.00,,---,0.00,0.00,VWS V14.01,2013-06-03 10:17:00,
2013-06-03 03:22:00,45.0,37.6,29.99,North,360,2.0,3.0,75,0.00,,---,0.00,0.00,VWS V14.01,2013-06-03 10:22:00,
2013-06-03 03:27:00,45.0,37.6,29.99,North,5,2.0,3.0,75,0.00,,---,0.00,0.00,VWS V14.01,2013-06-03 10:27:00,
2013-06-03 03:32:00,45.0,37.6,29.99,North,5,1.0,3.0,75,0.00,,---,0.00,0.00,VWS V14.01,2013-06-03 10:32:00,
2013-06-03 03:37:00,44.9,37.8,29.99,North,360,3.0,3.0,76,0.00,,---,0.00,0.00,VWS V14.01,2013-06-03 10:37:00,
2013-06-03 03:42:00,44.9,37.5,29.99,North,360,1.0,4.0,75,0.00,,---,0.00,0.00,VWS V14.01,2013-06-03 10:42:00,
2013-06-03 03:47:00,44.9,37.5,29.99,NNE,16,4.0,4.0,75,0.00,,---,0.00,0.00,VWS V14.01,2013-06-03 10:47:00,
2013-06-03 03:52:00,44.8,37.7,29.99,SW,228,2.0,5.0,76,0.00,,---,0.00,0.00,VWS V14.01,2013-06-03 10:52:00,
2013-06-03 03:57:00,44.8,37.7,29.99,NNE,12,2.0,5.0,76,0.00,,---,0.00,0.00,VWS V14.01,2013-06-03 10:57:00,
2013-06-03 04:02:00,44.7,37.6,29.99,SW,236,2.0,4.0,76,0.00,,---,0.00,0.00,VWS V14.01,2013-06-03 11:02:00,
2013-06-03 04:07:00,44.6,37.8,29.99,North,360,2.0,5.0,77,0.00,,---,0.00,0.00,VWS V14.01,2013-06-03 11:07:00,
2013-06-03 04:12:00,44.6,37.8,29.99,North,10,1.0,5.0,77,0.00,,---,0.00,0.00,VWS V14.01,2013-06-03 11:12:00,
2013-06-03 04:17:00,44.6,37.8,29.99,North,5,3.0,5.0,77,0.00,,---,0.00,0.00,VWS V14.01,2013-06-03 11:17:00,
2013-06-03 04:22:00,44.6,37.8,29.99,SW,227,2.0,5.0,77,0.00,,---,0.00,0.00,VWS V14.01,2013-06-03 11:22:00,
2013-06-03 04:27:00,44.8,38.0,29.99,SW,227,2.0,5.0,77,0.00,,---,0.00,0.00,VWS V14.01,2013-06-03 11:27:00,
2013-06-03 04:32:00,44.8,38.0,29.99,SW,220,2.0,4.0,77,0.00,,---,0.00,0.00,VWS V14.01,2013-06-03 11:32:00,
2013-06-03 04:37:00,44.8,38.0,29.99,SW,228,1.0,6.0,77,0.00,,---,0.00,0.00,VWS V14.01,2013-06-03 11:37:00,
2013-06-03 04:42:00,44.8,38.0,29.99,SW,220,2.0,6.0,77,0.00,,---,0.00,0.00,VWS V14.01,2013-06-03 11:42:00,
2013-06-03 04:47:00,44.8,38.0,29.99,North,9,3.0,6.0,77,0.00,,---,0.00,0.00,VWS V14.01,2013-06-03 11:47:00,
2013-06-03 04:52:00,44.8,38.0,29.98,SW,234,3.0,6.0,77,0.00,,---,0.00,0.00,VWS V14.01,2013-06-03 11:52:00,
2013-06-03 04:57:00,44.8,38.0,29.99,NNE,24,5.0,6.0,77,0.00,,---,0.00,0.00,VWS V14.01,2013-06-03 11:57:00,
2013-06-03 05:02:00,44.8,37.7,29.99,North,5,3.0,3.0,76,0.00,,---,0.00,0.00,VWS V14.01,2013-06-03 12:02:00,
2013-06-03 05:07:00,44.8,37.7,29.99,SW,236,3.0,5.0,76,0.00,,---,0.00,0.00,VWS V14.01,2013-06-03 12:07:00,
2013-06-03 05:12:00,44.7,37.9,29.99,NNE,13,3.0,5.0,77,0.00,,---,0.00,0.00,VWS V14.01,2013-06-03 12:12:00,
2013-06-03 05:17:00,44.6,37.5,29.99,SW,236,3.0,6.0,76,0.00,,---,0.00,0.00,VWS V14.01,2013-06-03 12:17:00,
2013-06-03 05:22:00,44.5,37.4,29.99,SW,223,2.0,6.0,76,0.00,,---,0.00,0.00,VWS V14.01,2013-06-03 12:22:00,
2013-06-03 05:27:00,44.5,37.8,29.99,NNE,24,3.0,6.0,77,0.00,,---,0.00,5.00,VWS V14.01,2013-06-03 12:27:00,
2013-06-03 05:32:00,44.4,37.7,29.98,NNE,14,3.0,6.0,77,0.00,,---,0.00,7.00,VWS V14.01,2013-06-03 12:32:00,
2013-06-03 05:37:00,44.4,37.7,29.99,NNE,21,5.0,6.0,77,0.00,,---,0.00,9.00,VWS V14.01,2013-06-03 12:37:00,
2013-06-03 05:42:00,44.4,37.7,29.98,SW,229,4.0,7.0,77,0.00,,---,0.00,11.00,VWS V14.01,2013-06-03 12:42:00,
2013-06-03 05:47:00,44.3,37.6,29.98,NNE,22,3.0,7.0,77,0.00,,---,0.00,12.00,VWS V14.01,2013-06-03 12:47:00,
2013-06-03 05:52:00,44.2,37.5,29.99,SW,224,2.0,7.0,77,0.00,,---,0.00,12.00,VWS V14.01,2013-06-03 12:52:00,
2013-06-03 05:57:00,44.1,37.7,29.99,SW,221,6.0,7.0,78,0.00,,---,0.00,14.00,VWS V14.01,2013-06-03 12:57:00,
2013-06-03 06:02:00,44.1,37.7,29.99,NNE,16,3.0,4.0,78,0.00,,---,0.00,16.00,VWS V14.01,2013-06-03 13:02:00,
2013-06-03 06:07:00,44.0,37.6,29.99,NNE,17,2.0,6.0,78,0.00,,---,0.00,18.00,VWS V14.01,2013-06-03 13:07:00,
2013-06-03 06:12:00,44.0,37.6,29.99,NNE,19,2.0,6.0,78,0.00,,---,0.00,19.00,VWS V14.01,2013-06-03 13:12:00,
2013-06-03 06:17:00,44.0,37.6,29.99,North,5,0.0,6.0,78,0.00,,---,0.00,19.00,VWS V14.01,2013-06-03 13:17:00,
2013-06-03 06:22:00,44.1,37.7,29.99,NNE,19,2.0,8.0,78,0.00,,---,0.00,21.00,VWS V14.01,2013-06-03 13:22:00,
2013-06-03 06:27:00,44.4,38.0,29.99,North,360,4.0,8.0,78,0.00,,---,0.00,21.00,VWS V14.01,2013-06-03 13:27:00,
2013-06-03 06:32:00,44.5,37.8,29.99,SW,229,3.0,5.0,77,0.00,,---,0.00,23.00,VWS V14.01,2013-06-03 13:32:00,
2013-06-03 06:37:00,44.6,37.8,29.99,SW,224,4.0,6.0,77,0.00,,---,0.00,25.00,VWS V14.01,2013-06-03 13:37:00,
2013-06-03 06:42:00,44.7,37.9,29.99,NNE,18,1.0,6.0,77,0.00,,---,0.00,25.00,VWS V14.01,2013-06-03 13:42:00,
2013-06-03 06:47:00,44.8,38.0,29.99,NNE,18,2.0,6.0,77,0.00,,---,0.00,26.00,VWS V14.01,2013-06-03 13:47:00,
2013-06-03 06:52:00,45.0,38.2,29.99,North,5,4.0,7.0,77,0.00,,---,0.00,26.00,VWS V14.01,2013-06-03 13:52:00,
2013-06-03 06:57:00,45.2,38.1,29.99,North,360,1.0,8.0,76,0.00,,---,0.00,28.00,VWS V14.01,2013-06-03 13:57:00,
2013-06-03 07:02:00,45.2,38.1,29.99,SW,223,4.0,7.0,76,0.00,,---,0.00,28.00,VWS V14.01,2013-06-03 14:02:00,
2013-06-03 07:07:00,45.2,38.1,29.99,North,5,2.0,8.0,76,0.00,,---,0.00,44.00,VWS V14.01,2013-06-03 14:07:00,
2013-06-03 07:12:00,45.2,38.1,30.00,NNE,18,4.0,8.0,76,0.00,,---,0.00,28.00,VWS V14.01,2013-06-03 14:12:00,
2013-06-03 07:17:00,45.4,38.3,30.00,SW,229,3.0,8.0,76,0.00,,---,0.00,30.00,VWS V14.01,2013-06-03 14:17:00,
2013-06-03 07:22:00,45.6,38.5,30.00,SW,227,2.0,8.0,76,0.00,,---,0.00,30.00,VWS V14.01,2013-06-03 14:22:00,
2013-06-03 07:27:00,45.8,38.7,30.00,SW,224,4.0,8.0,76,0.00,,---,0.00,32.00,VWS V14.01,2013-06-03 14:27:00,
2013-06-03 07:32:00,46.1,38.6,30.00,NNE,20,3.0,4.0,75,0.00,,---,0.00,30.00,VWS V14.01,2013-06-03 14:32:00,
2013-06-03 07:37:00,46.4,38.9,30.00,North,5,2.0,5.0,75,0.00,,---,0.00,116.00,VWS V14.01,2013-06-03 14:37:00,
2013-06-03 07:42:00,46.7,39.2,30.00,NNE,28,3.0,6.0,75,0.00,,---,0.00,35.00,VWS V14.01,2013-06-03 14:42:00,
2013-06-03 07:47:00,47.0,39.2,30.00,North,11,1.0,7.0,74,0.00,,---,0.00,39.00,VWS V14.01,2013-06-03 14:47:00,
2013-06-03 07:52:00,47.4,39.2,30.00,SW,229,4.0,7.0,73,0.00,,---,0.00,72.00,VWS V14.01,2013-06-03 14:52:00,
2013-06-03 07:57:00,47.8,39.6,30.01,NNE,21,1.0,7.0,73,0.00,,---,0.00,144.00,VWS V14.01,2013-06-03 14:57:00,
2013-06-03 08:02:00,48.1,39.9,30.01,NNE,27,1.0,3.0,73,0.00,,---,0.00,181.00,VWS V14.01,2013-06-03 15:02:00,
2013-06-03 08:07:00,48.4,39.4,30.01,North,360,5.0,7.0,71,0.00,,---,0.00,396.00,VWS V14.01,2013-06-03 15:07:00,
2013-06-03 08:12:00,48.8,39.5,30.01,NNE,18,3.0,7.0,70,0.00,,---,0.00,411.00,VWS V14.01,2013-06-03 15:12:00,
2013-06-03 08:17:00,49.3,39.6,30.01,NE,42,2.0,7.0,69,0.00,,---,0.00,427.00,VWS V14.01,2013-06-03 15:17:00,
2013-06-03 08:22:00,49.6,39.9,30.01,SW,227,0.0,7.0,69,0.00,,---,0.00,443.00,VWS V14.01,2013-06-03 15:22:00,
2013-06-03 08:27:00,50.3,40.2,30.01,SW,225,2.0,7.0,68,0.00,,---,0.00,459.00,VWS V14.01,2013-06-03 15:27:00,
2013-06-03 08:32:00,50.8,39.9,30.01,NE,46,4.0,5.0,66,0.00,,---,0.00,475.00,VWS V14.01,2013-06-03 15:32:00,
2013-06-03 08:37:00,51.2,40.2,30.01,NNE,29,3.0,5.0,66,0.00,,---,0.00,490.00,VWS V14.01,2013-06-03 15:37:00,
2013-06-03 08:42:00,51.6,39.8,30.01,NNE,28,3.0,5.0,64,0.00,,---,0.00,501.00,VWS V14.01,2013-06-03 15:42:00,
2013-06-03 08:47:00,52.2,40.0,30.01,NNE,26,2.0,7.0,63,0.00,,---,0.00,506.00,VWS V14.01,2013-06-03 15:47:00,
2013-06-03 08:52:00,52.6,40.0,30.01,SSW,197,0.0,7.0,62,0.00,,---,0.00,47.00,VWS V14.01,2013-06-03 15:52:00,
2013-06-03 08:57:00,53.2,40.5,30.01,NNE,31,4.0,7.0,62,0.00,,---,0.00,534.00,VWS V14.01,2013-06-03 15:57:00,
2013-06-03 09:02:00,53.5,40.4,30.01,NE,40,4.0,4.0,61,0.00,,---,0.00,142.00,VWS V14.01,2013-06-03 16:02:00,
2013-06-03 09:07:00,53.8,40.7,30.01,NE,38,3.0,5.0,61,0.00,,---,0.00,575.00,VWS V14.01,2013-06-03 16:07:00,
2013-06-03 09:12:00,54.3,40.3,30.01,South,190,1.0,6.0,59,0.00,,---,0.00,591.00,VWS V14.01,2013-06-03 16:12:00,
2013-06-03 09:17:00,55.7,40.3,30.01,North,11,3.0,6.0,56,0.00,,---,0.00,603.00,VWS V14.01,2013-06-03 16:17:00,
2013-06-03 09:22:00,55.9,39.0,30.01,NNE,15,3.0,6.0,53,0.00,,---,0.00,617.00,VWS V14.01,2013-06-03 16:22:00,
2013-06-03 09:27:00,55.8,38.5,30.01,NE,38,2.0,6.0,52,0.00,,---,0.00,631.00,VWS V14.01,2013-06-03 16:27:00,
2013-06-03 09:32:00,55.7,38.4,30.01,NNE,12,1.0,2.0,52,0.00,,---,0.00,643.00,VWS V14.01,2013-06-03 16:32:00,
2013-06-03 09:37:00,55.8,38.0,30.01,ENE,72,0.0,2.0,51,0.00,,---,0.00,657.00,VWS V14.01,2013-06-03 16:37:00,
2013-06-03 09:42:00,56.1,38.2,30.01,ESE,107,2.0,2.0,51,0.00,,---,0.00,671.00,VWS V14.01,2013-06-03 16:42:00,
2013-06-03 09:47:00,56.5,36.5,30.01,SSE,167,1.0,4.0,47,0.00,,---,0.00,686.00,VWS V14.01,2013-06-03 16:47:00,
2013-06-03 09:52:00,57.0,37.5,30.01,East,101,1.0,4.0,48,0.00,,---,0.00,700.00,VWS V14.01,2013-06-03 16:52:00,
2013-06-03 09:57:00,57.3,37.8,30.00,ESE,115,0.0,5.0,48,0.00,,---,0.00,714.00,VWS V14.01,2013-06-03 16:57:00,
2013-06-03 10:02:00,57.9,35.6,30.00,SE,144,0.0,2.0,43,0.00,,---,0.00,724.00,VWS V14.01,2013-06-03 17:02:00,
2013-06-03 10:07:00,58.5,35.5,30.01,ESE,115,0.0,5.0,42,0.00,,---,0.00,737.00,VWS V14.01,2013-06-03 17:07:00,
2013-06-03 10:12:00,59.0,35.3,30.01,SE,146,0.0,5.0,41,0.00,,---,0.00,749.00,VWS V14.01,2013-06-03 17:12:00,
2013-06-03 10:17:00,59.5,35.8,30.00,SSE,167,1.0,5.0,41,0.00,,---,0.00,761.00,VWS V14.01,2013-06-03 17:17:00,
2013-06-03 10:22:00,59.7,35.4,30.00,ESE,112,1.0,7.0,40,0.00,,---,0.00,772.00,VWS V14.01,2013-06-03 17:22:00,
2013-06-03 10:27:00,60.0,34.3,30.00,SSE,153,2.0,7.0,38,0.00,,---,0.00,782.00,VWS V14.01,2013-06-03 17:27:00,
2013-06-03 10:32:00,60.2,34.5,30.00,East,101,1.0,6.0,38,0.00,,---,0.00,791.00,VWS V14.01,2013-06-03 17:32:00,
2013-06-03 10:37:00,60.7,33.6,30.00,SSE,151,1.0,6.0,36,0.00,,---,0.00,803.00,VWS V14.01,2013-06-03 17:37:00,
2013-06-03 10:42:00,61.1,33.3,30.00,SE,128,4.0,6.0,35,0.00,,---,0.00,814.00,VWS V14.01,2013-06-03 17:42:00,
2013-06-03 10:47:00,61.3,32.7,30.00,SE,135,4.0,6.0,34,0.00,,---,0.00,826.00,VWS V14.01,2013-06-03 17:47:00,
2013-06-03 10:52:00,61.3,30.4,30.00,East,96,0.0,6.0,31,0.00,,---,0.00,835.00,VWS V14.01,2013-06-03 17:52:00,
2013-06-03 10:57:00,61.3,32.7,30.00,NNE,17,4.0,6.0,34,0.00,,---,0.00,844.00,VWS V14.01,2013-06-03 17:57:00,
2013-06-03 11:02:00,61.4,33.5,30.00,NE,42,2.0,3.0,35,0.00,,---,0.00,853.00,VWS V14.01,2013-06-03 18:02:00,
2013-06-03 11:07:00,61.8,33.2,30.00,East,87,0.0,3.0,34,0.00,,---,0.00,856.00,VWS V14.01,2013-06-03 18:07:00,
2013-06-03 11:12:00,62.1,35.5,30.00,East,83,2.0,3.0,37,0.00,,---,0.00,865.00,VWS V14.01,2013-06-03 18:12:00,
2013-06-03 11:17:00,62.5,35.2,30.00,ESE,123,1.0,3.0,36,0.00,,---,0.00,872.00,VWS V14.01,2013-06-03 18:17:00,
2013-06-03 11:22:00,63.1,35.7,30.00,ESE,110,3.0,4.0,36,0.00,,---,0.00,888.00,VWS V14.01,2013-06-03 18:22:00,
2013-06-03 11:27:00,63.7,34.1,30.00,ENE,70,3.0,7.0,33,0.00,,---,0.00,891.00,VWS V14.01,2013-06-03 18:27:00,
2013-06-03 11:32:00,64.1,35.2,30.00,ESE,120,1.0,3.0,34,0.00,,---,0.00,902.00,VWS V14.01,2013-06-03 18:32:00,
2013-06-03 11:37:00,64.4,33.1,30.00,ENE,59,1.0,4.0,31,0.00,,---,0.00,907.00,VWS V14.01,2013-06-03 18:37:00,
2013-06-03 11:42:00,64.7,30.9,30.00,East,80,0.0,5.0,28,0.00,,---,0.00,911.00,VWS V14.01,2013-06-03 18:42:00,
2013-06-03 11:47:00,65.0,32.0,30.00,East,80,2.0,5.0,29,0.00,,---,0.00,918.00,VWS V14.01,2013-06-03 18:47:00,
2013-06-03 11:52:00,65.5,33.3,30.00,ENE,63,0.0,5.0,30,0.00,,---,0.00,921.00,VWS V14.01,2013-06-03 18:52:00,
2013-06-03 11:57:00,65.9,31.0,30.00,ENE,69,1.0,5.0,27,0.00,,---,0.00,928.00,VWS V14.01,2013-06-03 18:57:00,
2013-06-03 12:02:00,66.2,31.3,30.00,East,90,5.0,8.0,27,0.00,,---,0.00,933.00,VWS V14.01,2013-06-03 19:02:00,
2013-06-03 12:07:00,66.5,31.5,30.00,East,91,0.0,8.0,27,0.00,,---,0.00,940.00,VWS V14.01,2013-06-03 19:07:00,
2013-06-03 12:12:00,66.5,33.3,29.99,East,84,2.0,8.0,29,0.00,,---,0.00,944.00,VWS V14.01,2013-06-03 19:12:00,
2013-06-03 12:17:00,66.8,33.5,29.99,ESE,107,1.0,8.0,29,0.00,,---,0.00,947.00,VWS V14.01,2013-06-03 19:17:00,
2013-06-03 12:22:00,67.3,30.3,29.99,East,93,2.0,8.0,25,0.00,,---,0.00,951.00,VWS V14.01,2013-06-03 19:22:00,
2013-06-03 12:27:00,67.5,32.4,29.99,NE,50,0.0,8.0,27,0.00,,---,0.00,954.00,VWS V14.01,2013-06-03 19:27:00,
2013-06-03 12:32:00,67.8,32.6,29.99,East,84,0.0,3.0,27,0.00,,---,0.00,954.00,VWS V14.01,2013-06-03 19:32:00,
2013-06-03 12:37:00,68.3,34.8,29.99,ENE,66,1.0,8.0,29,0.00,,---,0.00,960.00,VWS V14.01,2013-06-03 19:37:00,
2013-06-03 12:42:00,69.0,30.7,29.99,ENE,59,2.0,8.0,24,0.00,,---,0.00,962.00,VWS V14.01,2013-06-03 19:42:00,
2013-06-03 12:47:00,69.4,34.0,29.99,ENE,70,4.0,8.0,27,0.00,,---,0.00,956.00,VWS V14.01,2013-06-03 19:47:00,
2013-06-03 12:52:00,69.8,34.3,29.99,ENE,71,2.0,8.0,27,0.00,,---,0.00,965.00,VWS V14.01,2013-06-03 19:52:00,
2013-06-03 12:57:00,70.4,33.9,29.98,NE,56,0.0,8.0,26,0.00,,---,0.00,965.00,VWS V14.01,2013-06-03 19:57:00,
2013-06-03 13:02:00,71.0,33.4,29.98,East,88,2.0,7.0,25,0.00,,---,0.00,969.00,VWS V14.01,2013-06-03 20:02:00,
2013-06-03 13:07:00,71.2,33.6,29.98,ENE,63,1.0,10.0,25,0.00,,---,0.00,965.00,VWS V14.01,2013-06-03 20:07:00,
2013-06-03 13:12:00,71.7,36.9,29.98,NE,46,1.0,10.0,28,0.00,,---,0.00,963.00,VWS V14.01,2013-06-03 20:12:00,
2013-06-03 13:17:00,72.3,35.5,29.98,NE,48,1.0,10.0,26,0.00,,---,0.00,965.00,VWS V14.01,2013-06-03 20:17:00,
2013-06-03 13:22:00,72.1,33.3,29.98,ENE,65,2.0,10.0,24,0.00,,---,0.00,965.00,VWS V14.01,2013-06-03 20:22:00,
2013-06-03 13:27:00,71.4,35.7,29.98,NNE,15,0.0,10.0,27,0.00,,---,0.00,965.00,VWS V14.01,2013-06-03 20:27:00,
2013-06-03 13:32:00,71.7,33.0,29.98,NE,38,3.0,6.0,24,0.00,,---,0.00,962.00,VWS V14.01,2013-06-03 20:32:00,
2013-06-03 13:37:00,72.2,36.4,29.98,NE,49,3.0,6.0,27,0.00,,---,0.00,962.00,VWS V14.01,2013-06-03 20:37:00,
2013-06-03 13:42:00,72.0,32.2,29.97,NE,54,0.0,6.0,23,0.00,,---,0.00,962.00,VWS V14.01,2013-06-03 20:42:00,
2013-06-03 13:47:00,72.4,33.6,29.97,NE,44,3.0,6.0,24,0.00,,---,0.00,956.00,VWS V14.01,2013-06-03 20:47:00,
2013-06-03 13:52:00,72.8,31.8,29.97,North,5,0.0,7.0,22,0.00,,---,0.00,953.00,VWS V14.01,2013-06-03 20:52:00,
2013-06-03 13:57:00,73.1,32.0,29.97,NE,36,6.0,10.0,22,0.00,,---,0.00,947.00,VWS V14.01,2013-06-03 20:57:00,
2013-06-03 14:02:00,73.0,33.0,29.97,NNE,31,3.0,7.0,23,0.00,,---,0.00,946.00,VWS V14.01,2013-06-03 21:02:00,
2013-06-03 14:07:00,73.2,32.1,29.97,NNE,22,4.0,7.0,22,0.00,,---,0.00,940.00,VWS V14.01,2013-06-03 21:07:00,
2013-06-03 14:12:00,74.0,32.8,29.97,NNE,19,2.0,7.0,22,0.00,,---,0.00,939.00,VWS V14.01,2013-06-03 21:12:00,
2013-06-03 14:17:00,74.9,32.4,29.96,NNE,31,4.0,7.0,21,0.00,,---,0.00,928.00,VWS V14.01,2013-06-03 21:17:00,
2013-06-03 14:22:00,74.9,28.6,29.97,NNE,28,4.0,7.0,18,0.00,,---,0.00,925.00,VWS V14.01,2013-06-03 21:22:00,
2013-06-03 14:27:00,74.9,31.2,29.97,NNE,19,2.0,7.0,20,0.00,,---,0.00,919.00,VWS V14.01,2013-06-03 21:27:00,
2013-06-03 14:32:00,75.4,30.3,29.97,NNE,17,6.0,9.0,19,0.00,,---,0.00,914.00,VWS V14.01,2013-06-03 21:32:00,
2013-06-03 14:37:00,75.0,30.0,29.97,NNE,15,3.0,9.0,19,0.00,,---,0.00,907.00,VWS V14.01,2013-06-03 21:37:00,
2013-06-03 14:42:00,75.3,30.2,29.96,NNE,18,1.0,9.0,19,0.00,,---,0.00,896.00,VWS V14.01,2013-06-03 21:42:00,
2013-06-03 14:47:00,75.2,30.1,29.97,NNE,23,2.0,9.0,19,0.00,,---,0.00,888.00,VWS V14.01,2013-06-03 21:47:00,
2013-06-03 14:52:00,75.5,31.7,29.97,NNE,19,3.0,9.0,20,0.00,,---,0.00,879.00,VWS V14.01,2013-06-03 21:52:00,
2013-06-03 14:57:00,75.5,34.0,29.96,NNE,16,1.0,9.0,22,0.00,,---,0.00,874.00,VWS V14.01,2013-06-03 21:57:00,
2013-06-03 15:02:00,75.7,33.0,29.96,NNE,14,2.0,6.0,21,0.00,,---,0.00,863.00,VWS V14.01,2013-06-03 22:02:00,
2013-06-03 15:07:00,76.6,33.8,29.96,NNE,17,0.0,6.0,21,0.00,,---,0.00,856.00,VWS V14.01,2013-06-03 22:07:00,
2013-06-03 15:12:00,77.1,33.0,29.96,NNE,15,1.0,8.0,20,0.00,,---,0.00,846.00,VWS V14.01,2013-06-03 22:12:00,
2013-06-03 15:17:00,77.6,34.6,29.96,NNE,15,4.0,8.0,21,0.00,,---,0.00,837.00,VWS V14.01,2013-06-03 22:17:00,
2013-06-03 15:22:00,78.2,35.1,29.96,NNE,17,0.0,8.0,21,0.00,,---,0.00,826.00,VWS V14.01,2013-06-03 22:22:00,
2013-06-03 15:27:00,78.4,32.8,29.96,ENE,67,2.0,8.0,19,0.00,,---,0.00,817.00,VWS V14.01,2013-06-03 22:27:00,
2013-06-03 15:32:00,77.5,32.0,29.96,NE,39,6.0,10.0,19,0.00,,---,0.00,810.00,VWS V14.01,2013-06-03 22:32:00,
2013-06-03 15:37:00,76.9,32.8,29.95,NE,38,1.0,10.0,20,0.00,,---,0.00,798.00,VWS V14.01,2013-06-03 22:37:00,
2013-06-03 15:42:00,76.9,34.0,29.95,NE,36,5.0,10.0,21,0.00,,---,0.00,786.00,VWS V14.01,2013-06-03 22:42:00,
2013-06-03 15:47:00,77.1,34.2,29.95,NE,49,0.0,10.0,21,0.00,,---,0.00,775.00,VWS V14.01,2013-06-03 22:47:00,
2013-06-03 15:52:00,77.6,35.8,29.95,NE,44,4.0,10.0,22,0.00,,---,0.00,770.00,VWS V14.01,2013-06-03 22:52:00,
2013-06-03 15:57:00,77.5,34.5,29.95,NE,38,4.0,10.0,21,0.00,,---,0.00,756.00,VWS V14.01,2013-06-03 22:57:00,
2013-06-03 16:02:00,77.7,37.0,29.95,NNE,22,4.0,4.0,23,0.00,,---,0.00,742.00,VWS V14.01,2013-06-03 23:02:00,
2013-06-03 16:07:00,78.3,36.4,29.95,NNE,31,2.0,7.0,22,0.00,,---,0.00,731.00,VWS V14.01,2013-06-03 23:07:00,
2013-06-03 16:12:00,78.7,34.3,29.94,NE,34,3.0,7.0,20,0.00,,---,0.00,721.00,VWS V14.01,2013-06-03 23:12:00,
2013-06-03 16:17:00,78.4,34.0,29.95,NE,49,0.0,8.0,20,0.00,,---,0.00,705.00,VWS V14.01,2013-06-03 23:17:00,
2013-06-03 16:22:00,77.6,38.0,29.94,East,92,1.0,8.0,24,0.00,,---,0.00,694.00,VWS V14.01,2013-06-03 23:22:00,
2013-06-03 16:27:00,78.0,34.9,29.94,SE,133,3.0,8.0,21,0.00,,---,0.00,682.00,VWS V14.01,2013-06-03 23:27:00,
2013-06-03 16:32:00,78.1,35.0,29.94,SE,132,1.0,5.0,21,0.00,,---,0.00,673.00,VWS V14.01,2013-06-03 23:32:00,
2013-06-03 16:37:00,78.7,37.8,29.94,ESE,103,1.0,6.0,23,0.00,,---,0.00,657.00,VWS V14.01,2013-06-03 23:37:00,
2013-06-03 16:42:00,79.7,35.1,29.94,SE,129,1.0,8.0,20,0.00,,---,0.00,643.00,VWS V14.01,2013-06-03 23:42:00,
2013-06-03 16:47:00,80.0,37.8,29.94,SE,125,0.0,8.0,22,0.00,,---,0.00,629.00,VWS V14.01,2013-06-03 23:47:00,
2013-06-03 16:52:00,80.4,35.7,29.93,SSE,149,7.0,11.0,20,0.00,,---,0.00,619.00,VWS V14.01,2013-06-03 23:52:00,
2013-06-03 16:57:00,79.4,36.1,29.93,ESE,115,4.0,11.0,21,0.00,,---,0.00,603.00,VWS V14.01,2013-06-03 23:57:00,
2013-06-03 17:02:00,79.5,35.0,29.93,SSE,148,2.0,3.0,20,0.00,,---,0.00,594.00,VWS V14.01,2013-06-04 00:02:00,
2013-06-03 17:07:00,79.6,37.5,29.93,SE,132,1.0,8.0,22,0.00,,---,0.00,577.00,VWS V14.01,2013-06-04 00:07:00,
2013-06-03 17:12:00,79.7,36.3,29.93,East,92,3.0,8.0,21,0.00,,---,0.00,564.00,VWS V14.01,2013-06-04 00:12:00,
2013-06-03 17:17:00,80.4,36.9,29.93,SSE,157,5.0,8.0,21,0.00,,---,0.00,550.00,VWS V14.01,2013-06-04 00:17:00,
2013-06-03 17:22:00,80.3,38.0,29.93,ESE,105,4.0,8.0,22,0.00,,---,0.00,533.00,VWS V14.01,2013-06-04 00:22:00,
2013-06-03 17:27:00,78.9,35.7,29.93,SE,143,3.0,8.0,21,0.00,,---,0.00,517.00,VWS V14.01,2013-06-04 00:27:00,
2013-06-03 17:32:00,78.9,39.1,29.93,SSW,198,5.0,9.0,24,0.00,,---,0.00,503.00,VWS V14.01,2013-06-04 00:32:00,
2013-06-03 17:37:00,78.7,34.3,29.93,SSW,193,3.0,9.0,20,0.00,,---,0.00,489.00,VWS V14.01,2013-06-04 00:37:00,
2013-06-03 17:42:00,78.4,35.3,29.93,SSE,153,3.0,9.0,21,0.00,,---,0.00,475.00,VWS V14.01,2013-06-04 00:42:00,
2013-06-03 17:47:00,78.6,36.6,29.93,WSW,237,7.0,9.0,22,0.00,,---,0.00,459.00,VWS V14.01,2013-06-04 00:47:00,
2013-06-03 17:52:00,78.1,37.3,29.93,South,173,4.0,9.0,23,0.00,,---,0.00,445.00,VWS V14.01,2013-06-04 00:52:00,
2013-06-03 17:57:00,78.8,36.8,29.93,SSE,150,3.0,9.0,22,0.00,,---,0.00,427.00,VWS V14.01,2013-06-04 00:57:00,
2013-06-03 18:02:00,79.5,36.2,29.93,SW,226,3.0,7.0,21,0.00,,---,0.00,411.00,VWS V14.01,2013-06-04 01:02:00,
2013-06-03 18:07:00,78.1,36.2,29.92,SW,214,4.0,8.0,22,0.00,,---,0.00,394.00,VWS V14.01,2013-06-04 01:07:00,
2013-06-03 18:12:00,77.5,36.8,29.92,West,273,4.0,8.0,23,0.00,,---,0.00,381.00,VWS V14.01,2013-06-04 01:12:00,
2013-06-03 18:17:00,77.6,36.9,29.93,WSW,243,1.0,8.0,23,0.00,,---,0.00,367.00,VWS V14.01,2013-06-04 01:17:00,
2013-06-03 18:22:00,78.0,37.2,29.92,SSE,163,4.0,8.0,23,0.00,,---,0.00,350.00,VWS V14.01,2013-06-04 01:22:00,
2013-06-03 18:27:00,77.9,34.9,29.93,SSE,157,3.0,10.0,21,0.00,,---,0.00,336.00,VWS V14.01,2013-06-04 01:27:00,
2013-06-03 18:32:00,78.3,36.4,29.93,SSE,152,2.0,5.0,22,0.00,,---,0.00,320.00,VWS V14.01,2013-06-04 01:32:00,
2013-06-03 18:37:00,78.5,36.5,29.93,WSW,244,5.0,8.0,22,0.00,,---,0.00,302.00,VWS V14.01,2013-06-04 01:37:00,
2013-06-03 18:42:00,77.3,36.7,29.93,SSE,165,5.0,8.0,23,0.00,,---,0.00,288.00,VWS V14.01,2013-06-04 01:42:00,
2013-06-03 18:47:00,76.5,37.1,29.93,South,185,2.0,9.0,24,0.00,,---,0.00,274.00,VWS V14.01,2013-06-04 01:47:00,
2013-06-03 18:52:00,75.7,36.4,29.93,SSW,196,4.0,10.0,24,0.00,,---,0.00,258.00,VWS V14.01,2013-06-04 01:52:00,
2013-06-03 18:57:00,74.5,35.4,29.93,SW,216,5.0,10.0,24,0.00,,---,0.00,243.00,VWS V14.01,2013-06-04 01:57:00,
2013-06-03 19:02:00,73.9,35.9,29.93,SE,145,2.0,6.0,25,0.00,,---,0.00,225.00,VWS V14.01,2013-06-04 02:02:00,
2013-06-03 19:07:00,73.9,37.8,29.93,SW,223,4.0,7.0,27,0.00,,---,0.00,206.00,VWS V14.01,2013-06-04 02:07:00,
2013-06-03 19:12:00,73.7,35.7,29.93,SW,215,1.0,7.0,25,0.00,,---,0.00,188.00,VWS V14.01,2013-06-04 02:12:00,
2013-06-03 19:17:00,73.2,35.3,29.94,West,263,1.0,9.0,25,0.00,,---,0.00,174.00,VWS V14.01,2013-06-04 02:17:00,
2013-06-03 19:22:00,72.9,35.0,29.94,WSW,242,9.0,9.0,25,0.00,,---,0.00,156.00,VWS V14.01,2013-06-04 02:22:00,
2013-06-03 19:27:00,72.3,35.5,29.94,SSW,200,1.0,9.0,26,0.00,,---,0.00,139.00,VWS V14.01,2013-06-04 02:27:00,
2013-06-03 19:32:00,71.9,35.2,29.94,SW,235,3.0,5.0,26,0.00,,---,0.00,121.00,VWS V14.01,2013-06-04 02:32:00,
2013-06-03 19:37:00,72.1,36.3,29.94,SSW,210,3.0,6.0,27,0.00,,---,0.00,107.00,VWS V14.01,2013-06-04 02:37:00,
2013-06-03 19:42:00,72.2,35.4,29.95,WSW,257,3.0,7.0,26,0.00,,---,0.00,93.00,VWS V14.01,2013-06-04 02:42:00,
2013-06-03 19:47:00,71.7,34.0,29.95,SSW,201,4.0,7.0,25,0.00,,---,0.00,81.00,VWS V14.01,2013-06-04 02:47:00,
2013-06-03 19:52:00,71.0,33.4,29.95,SW,232,1.0,7.0,25,0.00,,---,0.00,70.00,VWS V14.01,2013-06-04 02:52:00,
2013-06-03 19:57:00,70.4,34.9,29.95,SSW,202,1.0,7.0,27,0.00,,---,0.00,56.00,VWS V14.01,2013-06-04 02:57:00,
2013-06-03 20:02:00,70.2,33.7,29.95,SW,234,1.0,3.0,26,0.00,,---,0.00,26.00,VWS V14.01,2013-06-04 03:02:00,
2013-06-03 20:07:00,69.8,33.4,29.95,SSW,211,3.0,5.0,26,0.00,,---,0.00,23.00,VWS V14.01,2013-06-04 03:07:00,
2013-06-03 20:12:00,69.3,33.9,29.96,WSW,238,1.0,5.0,27,0.00,,---,0.00,25.00,VWS V14.01,2013-06-04 03:12:00,
2013-06-03 20:17:00,68.8,33.5,29.96,WSW,245,0.0,6.0,27,0.00,,---,0.00,23.00,VWS V14.01,2013-06-04 03:17:00,
2013-06-03 20:22:00,68.5,33.2,29.96,SW,230,2.0,7.0,27,0.00,,---,0.00,19.00,VWS V14.01,2013-06-04 03:22:00,
2013-06-03 20:27:00,68.2,33.0,29.96,SSW,209,2.0,7.0,27,0.00,,---,0.00,16.00,VWS V14.01,2013-06-04 03:27:00,
2013-06-03 20:32:00,68.0,33.7,29.96,SW,231,2.0,3.0,28,0.00,,---,0.00,12.00,VWS V14.01,2013-06-04 03:32:00,
2013-06-03 20:37:00,67.7,33.5,29.96,SSW,204,3.0,3.0,28,0.00,,---,0.00,9.00,VWS V14.01,2013-06-04 03:37:00,
2013-06-03 20:42:00,67.2,32.1,29.96,WSW,243,5.0,6.0,27,0.00,,---,0.00,7.00,VWS V14.01,2013-06-04 03:42:00,
2013-06-03 20:47:00,66.8,30.8,29.96,SW,218,4.0,8.0,26,0.00,,---,0.00,5.00,VWS V14.01,2013-06-04 03:47:00,
2013-06-03 20:52:00,66.3,29.5,29.97,WSW,239,0.0,8.0,25,0.00,,---,0.00,0.00,VWS V14.01,2013-06-04 03:52:00,
2013-06-03 20:57:00,65.9,29.1,29.97,WSW,244,0.0,8.0,25,0.00,,---,0.00,0.00,VWS V14.01,2013-06-04 03:57:00,
2013-06-03 21:01:00,65.6,28.9,29.97,WSW,240,1.0,2.0,25,0.00,,---,0.00,0.00,VWS V14.01,2013-06-04 04:01:00,
2013-06-03 21:06:00,65.2,28.5,29.97,WSW,241,3.0,4.0,25,0.00,,---,0.00,0.00,VWS V14.01,2013-06-04 04:06:00,
2013-06-03 21:11:00,64.8,29.1,29.97,SW,226,0.0,4.0,26,0.00,,---,0.00,0.00,VWS V14.01,2013-06-04 04:11:00,
2013-06-03 21:16:00,64.4,28.8,29.98,SW,226,0.0,4.0,26,0.00,,---,0.00,0.00,VWS V14.01,2013-06-04 04:16:00,
2013-06-03 21:21:00,64.1,28.5,29.98,SW,234,0.0,4.0,26,0.00,,---,0.00,0.00,VWS V14.01,2013-06-04 04:21:00,
2013-06-03 21:26:00,63.8,29.2,29.98,SW,234,1.0,4.0,27,0.00,,---,0.00,0.00,VWS V14.01,2013-06-04 04:26:00,
2013-06-03 21:31:00,63.4,28.9,29.98,SW,234,0.0,0.0,27,0.00,,---,0.00,0.00,VWS V14.01,2013-06-04 04:31:00,
2013-06-03 21:36:00,63.1,28.6,29.98,SW,234,0.0,0.0,27,0.00,,---,0.00,0.00,VWS V14.01,2013-06-04 04:36:00,
2013-06-03 21:41:00,62.8,29.2,29.98,SW,234,0.0,0.0,28,0.00,,---,0.00,0.00,VWS V14.01,2013-06-04 04:41:00,
2013-06-03 21:46:00,62.5,29.0,29.98,SW,234,0.0,1.0,28,0.00,,---,0.00,0.00,VWS V14.01,2013-06-04 04:46:00,
2013-06-03 21:51:00,62.3,28.8,29.98,SW,220,0.0,1.0,28,0.00,,---,0.00,0.00,VWS V14.01,2013-06-04 04:51:00,
2013-06-03 21:56:00,62.2,28.7,29.98,SW,227,2.0,3.0,28,0.00,,---,0.00,0.00,VWS V14.01,2013-06-04 04:56:00,
2013-06-03 22:01:00,62.0,29.4,29.99,WSW,244,1.0,1.0,29,0.00,,---,0.00,0.00,VWS V14.01,2013-06-04 05:01:00,
2013-06-03 22:06:00,62.0,29.4,29.99,SW,225,0.0,4.0,29,0.00,,---,0.00,0.00,VWS V14.01,2013-06-04 05:06:00,
2013-06-03 22:11:00,61.8,30.1,29.99,SW,223,0.0,4.0,30,0.00,,---,0.00,0.00,VWS V14.01,2013-06-04 05:11:00,
2013-06-03 22:16:00,61.6,29.9,29.99,SW,232,0.0,4.0,30,0.00,,---,0.00,0.00,VWS V14.01,2013-06-04 05:16:00,
2013-06-03 22:21:00,61.4,29.7,29.99,SW,229,2.0,4.0,30,0.00,,---,0.00,0.00,VWS V14.01,2013-06-04 05:21:00,
2013-06-03 22:26:00,61.0,31.0,29.99,WSW,242,3.0,4.0,32,0.00,,---,0.00,0.00,VWS V14.01,2013-06-04 05:26:00,
2013-06-03 22:31:00,60.5,31.3,29.99,SW,229,2.0,3.0,33,0.00,,---,0.00,0.00,VWS V14.01,2013-06-04 05:31:00,
2013-06-03 22:36:00,60.3,31.8,29.99,SW,229,0.0,3.0,34,0.00,,---,0.00,0.00,VWS V14.01,2013-06-04 05:36:00,
2013-06-03 22:41:00,60.1,31.7,29.99,WSW,242,1.0,3.0,34,0.00,,---,0.00,0.00,VWS V14.01,2013-06-04 05:41:00,
2013-06-03 22:46:00,59.8,31.4,29.99,WSW,237,2.0,4.0,34,0.00,,---,0.00,0.00,VWS V14.01,2013-06-04 05:46:00,
2013-06-03 22:51:00,59.6,31.2,29.99,West,259,2.0,6.0,34,0.00,,---,0.00,0.00,VWS V14.01,2013-06-04 05:51:00,
2013-06-03 22:56:00,59.3,31.0,29.99,West,265,3.0,6.0,34,0.00,,---,0.00,0.00,VWS V14.01,2013-06-04 05:56:00,
2013-06-03 23:01:00,59.0,30.7,29.99,WSW,244,1.0,2.0,34,0.00,,---,0.00,0.00,VWS V14.01,2013-06-04 06:01:00,
2013-06-03 23:06:00,58.8,31.2,29.99,SW,225,1.0,5.0,35,0.00,,---,0.00,0.00,VWS V14.01,2013-06-04 06:06:00,
2013-06-03 23:11:00,58.5,31.0,29.99,SW,236,3.0,5.0,35,0.00,,---,0.00,0.00,VWS V14.01,2013-06-04 06:11:00,
2013-06-03 23:16:00,58.3,30.8,29.99,SW,233,2.0,5.0,35,0.00,,---,0.00,0.00,VWS V14.01,2013-06-04 06:16:00,
2013-06-03 23:21:00,58.2,30.7,30.00,SW,220,2.0,5.0,35,0.00,,---,0.00,0.00,VWS V14.01,2013-06-04 06:21:00,
2013-06-03 23:26:00,58.0,30.5,30.00,SW,234,2.0,5.0,35,0.00,,---,0.00,0.00,VWS V14.01,2013-06-04 06:26:00,
2013-06-03 23:31:00,57.9,30.4,30.00,SW,233,1.0,2.0,35,0.00,,---,0.00,0.00,VWS V14.01,2013-06-04 06:31:00,
2013-06-03 23:36:00,57.7,31.0,30.00,SW,234,1.0,3.0,36,0.00,,---,0.00,0.00,VWS V14.01,2013-06-04 06:36:00,
2013-06-03 23:41:00,57.5,30.8,30.00,SW,217,3.0,4.0,36,0.00,,---,0.00,0.00,VWS V14.01,2013-06-04 06:41:00,
2013-06-03 23:46:00,57.3,30.6,30.00,SSW,211,0.0,5.0,36,0.00,,---,0.00,0.00,VWS V14.01,2013-06-04 06:46:00,
2013-06-03 23:51:00,57.2,30.5,30.00,WSW,243,2.0,5.0,36,0.00,,---,0.00,0.00,VWS V14.01,2013-06-04 06:51:00,
2013-06-03 23:55:00,57.1,30.4,30.00,SW,217,0.0,5.0,36,0.00,,---,0.00,0.00,VWS V14.01,2013-06-04 06:55:00,